This demonstration page uses our WeatherBlox Daily Observations layout. Learn more.

Left ArrowRight Arrow

39.51506, -84.39828

Hourly Observations for June 11, 2018

Temp ( °F °C ) Dew Point ( °F °C ) Humidity (%) Winds ( mph kmh ) Pressure ( in mb ) Visibility ( mi km ) Precip ( " mm )
12:15 am 00:15 Cloudy 69 20.5 68 19.8 96 96 Calm 29.85 1011 10 16 0.00 0.00
12:35 am 00:35 Mostly Cloudy 69 20.6 68 19.8 95 95 SW 6 9 29.85 1011 10 16 0.00 0.00
12:55 am 00:55 Cloudy 69 20.5 68 19.9 96 96 Calm 29.85 1011 10 16 0.00 0.00
1:15 am 01:15 Cloudy 69 20.4 68 19.8 96 96 SW 5 7 29.85 1011 10 16 0.00 0.00
1:35 am 01:35 Mostly Cloudy with Light Rain 69 20.5 68 19.8 96 96 WSW 5 7 29.85 1011 10 16 0.00 0.00
1:55 am 01:55 Mostly Cloudy with Light Rain 69 20.5 67 19.7 95 95 SW 6 9 29.85 1011 10 16 0.00 0.00
2:15 am 02:15 Partly Cloudy 69 20.6 67 19.7 95 95 Calm 29.83 1010 10 16 0.00 0.00
2:35 am 02:35 Cloudy 69 20.6 67 19.7 95 95 Calm 29.83 1010 10 16 0.00 0.00
2:55 am 02:55 Mostly Cloudy 69 20.3 67 19.6 96 96 WSW 3 6 29.85 1011 10 16 0.00 0.00
3:15 am 03:15 Partly Cloudy 68 19.8 67 19.4 98 98 SSW 3 6 29.85 1011 10 16 0.00 0.00
3:35 am 03:35 Clear 68 20.1 67 19.5 96 96 SSW 5 7 29.85 1011 10 16 0.00 0.00
3:55 am 03:55 Clear 68 20.2 67 19.4 95 95 Calm 29.83 1010 10 16 0.00 0.00
4:15 am 04:15 Mostly Cloudy 68 20 67 19.5 97 97 Calm 29.85 1011 7 11 0.00 0.00
4:35 am 04:35 Mostly Cloudy with Mist and Fog 67 19.7 67 19.4 98 98 Calm 29.85 1011 7 11 0.00 0.00
4:55 am 04:55 Cloudy 67 19.7 67 19.4 98 98 SW 5 7 29.85 1011 7 11 0.00 0.00
5:15 am 05:15 Partly Cloudy 67 19.7 67 19.3 98 98 WSW 3 6 29.85 1011 10 16 0.00 0.00
5:35 am 05:35 Partly Cloudy 67 19.7 67 19.2 97 97 SW 3 6 29.85 1011 10 16 0.00 0.00
5:55 am 05:55 Partly Cloudy 68 19.8 66 19.1 96 96 SSW 5 7 29.85 1011 10 16 0.00 0.00
6:15 am 06:15 Sunny 68 19.8 67 19.2 96 96 SW 5 7 29.85 1011 10 16 0.00 0.00
6:35 am 06:35 Mostly Cloudy 67 19.7 67 19.2 97 97 Calm 29.88 1012 10 16 0.00 0.00
6:55 am 06:55 Cloudy 68 19.8 67 19.2 96 96 Calm 29.88 1012 10 16 0.00 0.00
7:15 am 07:15 Cloudy 68 19.8 66 19.1 96 96 SW 6 9 29.88 1012 10 16 0.00 0.00
7:35 am 07:35 Cloudy 68 19.9 66 19.1 95 95 WSW 3 6 29.88 1012 10 16 0.00 0.00
7:55 am 07:55 Cloudy 68 20.1 67 19.2 95 95 WSW 3 6 29.91 1013 10 16 0.00 0.00
8:15 am 08:15 Mostly Cloudy 68 20.2 67 19.3 95 95 SW 5 7 29.91 1013 10 16 0.00 0.00
8:35 am 08:35 Mostly Cloudy with Light Rain 69 20.4 67 19.3 93 93 Calm 29.91 1013 10 16 0.00 0.00
8:55 am 08:55 Mostly Cloudy with Light Rain 69 20.7 67 19.3 92 92 Calm 29.91 1013 10 16 0.00 0.00
9:15 am 09:15 Mostly Cloudy with Light Rain 69 20.8 67 19.4 92 92 Calm 29.91 1013 10 16 0.00 0.00
9:35 am 09:35 Cloudy with Light Rain 69 20.8 67 19.3 91 91 Calm 29.91 1013 10 16 0.00 0.00
9:55 am 09:55 Cloudy with Light Rain 69 20.8 67 19.7 93 93 SW 3 6 29.94 1014 7 11 0.01 0.25
10:15 am 10:15 Cloudy with Light Rain 69 20.7 67 19.4 92 92 Calm 29.94 1014 10 16 0.01 0.25
10:35 am 10:35 Mostly Cloudy with Light Rain 70 20.9 67 19.4 91 91 WSW 3 6 29.94 1014 10 16 0.01 0.25
10:55 am 10:55 Cloudy with Light Rain 70 21 67 19.6 92 92 SW 7 11 29.94 1014 10 16 0.01 0.25
11:15 am 11:15 Cloudy with Light Rain 69 20.8 67 19.2 91 91 Calm 29.94 1014 10 16 0.01 0.25
11:35 am 11:35 Cloudy with Light Rain 70 21 67 19.7 92 92 Calm 29.94 1014 10 16 0.02 0.51
11:55 am 11:55 Cloudy with Light Rain 70 21 67 19.7 92 92 Calm 29.94 1014 10 16 0.02 0.51
12:15 pm 12:15 Cloudy with Light Rain 70 21.1 67 19.6 91 91 Calm 29.94 1014 10 16 0.00 0.00
12:35 pm 12:35 Cloudy with Light Rain 71 21.4 66 19.1 87 87 Calm 29.94 1014 10 16 0.00 0.00
12:55 pm 12:55 Cloudy with Light Rain 71 21.5 67 19.2 87 87 Calm 29.94 1014 10 16 0.00 0.00
1:15 pm 13:15 Mostly Cloudy 72 22.1 66 19.1 83 83 Calm 29.94 1014 10 16 0.00 0.00
1:35 pm 13:35 Cloudy 72 22.1 67 19.2 84 84 Calm 29.94 1014 10 16 0.00 0.00
1:55 pm 13:55 Cloudy 72 22.4 67 19.5 84 84 SSE 3 6 29.94 1014 10 16 0.00 0.00
2:15 pm 14:15 Cloudy 72 22.4 67 19.2 82 82 WSW 3 6 29.94 1014 10 16 0.00 0.00
2:35 pm 14:35 Mostly Cloudy with Light Rain 73 23 67 19.3 80 80 Calm 29.94 1014 10 16 0.00 0.00
2:55 pm 14:55 Mostly Cloudy 74 23.1 67 19.2 79 79 S 3 6 29.91 1013 10 16 0.00 0.00
3:15 pm 15:15 Sunny 76 24.2 67 19.4 75 75 SE 6 9 29.91 1013 10 16 0.00 0.00
3:35 pm 15:35 Partly Cloudy 75 24.1 66 18.8 72 72 ESE 7 11 29.88 1012 10 16 0.00 0.00
3:55 pm 15:55 Mostly Cloudy 76 24.5 66 19.1 72 72 SE 8 13 29.88 1012 10 16 0.00 0.00
4:15 pm 16:15 Cloudy 76 24.2 66 18.9 72 72 ESE 6 9 29.91 1013 10 16 0.00 0.00
4:35 pm 16:35 Cloudy 76 24.6 65 18.1 67 67 E 5 7 29.91 1013 10 16 0.00 0.00
4:55 pm 16:55 Mostly Cloudy 76 24.6 65 18.4 68 68 Calm 29.91 1013 10 16 0.00 0.00
5:15 pm 17:15 Partly Cloudy 75 24.1 67 19.2 74 74 NE 6 9 29.91 1013 10 16 0.00 0.00
5:35 pm 17:35 Sunny 76 24.6 67 19.7 74 74 NNE 5 7 29.88 1012 10 16 0.00 0.00
5:55 pm 17:55 Partly Cloudy 76 24.5 67 19.5 74 74 NNE 7 11 29.88 1012 10 16 0.00 0.00
6:15 pm 18:15 Sunny 76 24.2 67 19.6 76 76 NE 7 11 29.88 1012 10 16 0.00 0.00
6:35 pm 18:35 Partly Cloudy 76 24.7 67 19.5 73 73 NNE 6 9 29.88 1012 10 16 0.00 0.00
6:55 pm 18:55 Cloudy 78 25.3 68 20 73 73 ENE 8 13 29.88 1012 10 16 0.00 0.00
7:15 pm 19:15 Mostly Cloudy 76 24.3 67 19.6 75 75 NE 7 11 29.88 1012 10 16 0.00 0.00
7:35 pm 19:35 Mostly Cloudy 75 23.8 67 19.6 77 77 ENE 5 7 29.91 1013 10 16 0.00 0.00
7:55 pm 19:55 Mostly Cloudy 74 23.3 68 19.9 81 81 NE 5 7 29.91 1013 10 16 0.00 0.00
8:15 pm 20:15 Partly Cloudy 73 22.9 68 20.1 84 84 Calm 29.91 1013 10 16 0.00 0.00
8:35 pm 20:35 Mostly Cloudy 72 22.4 69 20.4 89 89 ENE 3 6 29.91 1013 10 16 0.00 0.00
8:55 pm 20:55 Sunny 71 21.8 69 20.4 92 92 Calm 29.91 1013 10 16 0.00 0.00
9:15 pm 21:15 Clear 70 21.3 68 20.1 93 93 NE 7 11 29.94 1014 10 16 0.00 0.00
9:35 pm 21:35 Clear 70 21.2 67 19.6 91 91 ENE 7 11 29.91 1013 10 16 0.00 0.00
9:55 pm 21:55 Clear 70 21.1 66 19 88 88 ENE 7 11 29.94 1014 10 16 0.00 0.00
10:15 pm 22:15 Mostly Cloudy 70 20.9 66 18.8 88 88 NE 6 9 29.94 1014 10 16 0.00 0.00
10:35 pm 22:35 Cloudy 70 21.1 66 19 88 88 ENE 7 11 29.94 1014 10 16 0.00 0.00
10:55 pm 22:55 Cloudy 70 20.9 66 19 89 89 NE 8 13 29.94 1014 10 16 0.00 0.00
11:15 pm 23:15 Mostly Cloudy 69 20.8 66 18.9 89 89 ENE 7 11 29.94 1014 10 16 0.00 0.00
11:35 pm 23:35 Mostly Cloudy 69 20.6 67 19.2 92 92 ENE 7 11 29.94 1014 10 16 0.00 0.00
11:55 pm 23:55 Cloudy 70 20.9 67 19.4 91 91 ENE 7 11 29.94 1014 10 16 0.00 0.00

Powered by AerisWeather